2019-07-21 00:05:12 r, 18.56m,0000000004Hz,0000137591c,0000000.299s, 032.8C,00002195
2019-07-21 00:15:12 r, 18.55m,0000000003Hz,0000136250c,0000000.296s, 032.5C,00002195
2019-07-21 00:25:12 r, 18.53m,0000000003Hz,0000133565c,0000000.290s, 032.5C,00002195
2019-07-21 00:35:12 r, 18.51m,0000000004Hz,0000132079c,0000000.287s, 032.2C,00002195
2019-07-21 00:45:12 r, 18.50m,0000000004Hz,0000130504c,0000000.283s, 032.2C,00002195
2019-07-21 00:55:12 r, 18.49m,0000000004Hz,0000128866c,0000000.280s, 031.9C,00002195
2019-07-21 01:05:12 r, 18.49m,0000000003Hz,0000129415c,0000000.281s, 031.9C,00002195
2019-07-21 01:15:12 r, 18.48m,0000000004Hz,0000127572c,0000000.277s, 031.9C,00002195
2019-07-21 01:25:12 r, 18.43m,0000000004Hz,0000121960c,0000000.265s, 031.5C,00002195
2019-07-21 01:35:12 r, 17.98m,0000000006Hz,0000080567c,0000000.175s, 031.5C,00002195
2019-07-21 01:45:12 r, 18.45m,0000000003Hz,0000124037c,0000000.269s, 031.5C,00002195
2019-07-21 01:55:12 r, 18.43m,0000000003Hz,0000122117c,0000000.265s, 031.5C,00002195
2019-07-21 02:05:12 r, 18.42m,0000000004Hz,0000121690c,0000000.264s, 031.2C,00002195
2019-07-21 02:15:12 r, 18.41m,0000000004Hz,0000120052c,0000000.261s, 031.2C,00002195
2019-07-21 02:25:12 r, 16.67m,0000000019Hz,0000024167c,0000000.052s, 031.2C,00002195
2019-07-21 02:35:12 r, 16.30m,0000000026Hz,0000017372c,0000000.038s, 031.2C,00002195
2019-07-21 02:45:12 r, 17.30m,0000000011Hz,0000043020c,0000000.093s, 031.5C,00002195
2019-07-21 02:55:12 r, 16.99m,0000000014Hz,0000032338c,0000000.070s, 031.5C,00002195
2019-07-21 03:05:12 r, 18.32m,0000000004Hz,0000110266c,0000000.239s, 031.5C,00002195
2019-07-21 03:15:12 r, 18.34m,0000000004Hz,0000113264c,0000000.246s, 031.2C,00002195
2019-07-21 03:25:12 r, 18.34m,0000000004Hz,0000113208c,0000000.246s, 030.9C,00002195
2019-07-21 03:35:12 r, 18.32m,0000000004Hz,0000111334c,0000000.242s, 030.6C,00002195
2019-07-21 03:45:12 r, 18.30m,0000000005Hz,0000109465c,0000000.238s, 030.6C,00002195
2019-07-21 03:55:12 r, 18.28m,0000000005Hz,0000106553c,0000000.231s, 030.2C,00002195
2019-07-21 04:05:12 r, 18.21m,0000000005Hz,0000100109c,0000000.217s, 029.9C,00002195
2019-07-21 04:15:12 r, 18.06m,0000000005Hz,0000087445c,0000000.190s, 029.9C,00002195
2019-07-21 04:25:12 r, 17.76m,0000000006Hz,0000066237c,0000000.144s, 029.6C,00002195
2019-07-21 04:35:12 r, 17.22m,0000000012Hz,0000040236c,0000000.087s, 029.6C,00002195
2019-07-21 04:45:12 r, 16.33m,0000000026Hz,0000017798c,0000000.039s, 029.3C,00002195
2019-07-21 04:55:12 r, 14.92m,0000000094Hz,0000004853c,0000000.011s, 029.3C,00002195
2019-07-21 05:05:12 r, 13.31m,0000000420Hz,0000000000c,0000000.000s, 029.3C,00002195
2019-07-21 05:15:12 r, 11.76m,0000001757Hz,0000000000c,0000000.000s, 029.3C,00002195
2019-07-21 05:25:12 r, 10.32m,0000006646Hz,0000000000c,0000000.000s, 029.3C,00002195
2019-07-21 05:35:12 r, 08.96m,0000023157Hz,0000000000c,0000000.000s, 029.0C,00002195
2019-07-21 05:45:12 r, 08.01m,0000055737Hz,0000000000c,0000000.000s, 029.0C,00002195
2019-07-21 05:55:12 r, 07.18m,0000119110Hz,0000000000c,0000000.000s, 029.0C,00002195
2019-07-21 06:05:12 r, 06.64m,0000195814Hz,0000000000c,0000000.000s, 029.0C,00002195
2019-07-21 06:15:12 r, 06.25m,0000282047Hz,0000000000c,0000000.000s, 029.0C,00002195
2019-07-21 06:25:12 r, 05.95m,0000370978Hz,0000000000c,0000000.000s, 029.3C,00002195
2019-07-21 06:35:12 r, 00.00m,0000452174Hz,0000000000c,0000000.000s, 029.6C,00002195
2019-07-21 06:45:12 r, 00.00m,0000533535Hz,0000000000c,0000000.000s, 029.6C,00002195
2019-07-21 06:55:12 r, 00.00m,0000564272Hz,0000000000c,0000000.000s, 029.6C,00002195
2019-07-21 07:05:12 r, 00.00m,0000564131Hz,0000000000c,0000000.000s, 029.6C,00002195
2019-07-21 07:15:12 r, 00.00m,0000564112Hz,0000000000c,0000000.000s, 029.6C,00002195
2019-07-21 07:25:12 r, 00.00m,0000564172Hz,0000000000c,0000000.000s, 029.9C,00002195
2019-07-21 07:35:12 r, 00.00m,0000564171Hz,0000000000c,0000000.000s, 030.2C,00002195
2019-07-21 07:45:12 r, 00.00m,0000564301Hz,0000000000c,0000000.000s, 030.6C,00002195
2019-07-21 07:55:13 r, 00.00m,0000564210Hz,0000000000c,0000000.000s, 030.9C,00002195
2019-07-21 08:05:12 r, 00.00m,0000564291Hz,0000000000c,0000000.000s, 031.2C,00002195
2019-07-21 08:15:13 r, 00.00m,0000564333Hz,0000000000c,0000000.000s, 031.5C,00002195
2019-07-21 08:25:15 r, 00.00m,0000564350Hz,0000000000c,0000000.000s, 031.9C,00002195
2019-07-21 08:35:12 r, 00.00m,0000564392Hz,0000000000c,0000000.000s, 032.2C,00002195
2019-07-21 08:45:13 r, 00.00m,0000564525Hz,0000000000c,0000000.000s, 032.5C,00002195
2019-07-21 08:55:12 r, 00.00m,0000564552Hz,0000000000c,0000000.000s, 033.1C,00002195
2019-07-21 09:05:13 r, 00.00m,0000564469Hz,0000000000c,0000000.000s, 033.1C,00002195
2019-07-21 09:15:13 r, 00.00m,0000564744Hz,0000000000c,0000000.000s, 034.8C,00002195
2019-07-21 09:25:13 r, 00.00m,0000565085Hz,0000000000c,0000000.000s, 038.0C,00002195
2019-07-21 09:35:13 r, 00.00m,0000565315Hz,0000000000c,0000000.000s, 040.6C,00002195
2019-07-21 09:45:13 r, 00.00m,0000565440Hz,0000000000c,0000000.000s, 042.5C,00002195
2019-07-21 09:55:13 r, 00.00m,0000565516Hz,0000000000c,0000000.000s, 043.8C,00002195
2019-07-21 10:05:13 r, 00.00m,0000565540Hz,0000000000c,0000000.000s, 044.8C,00002195
2019-07-21 10:15:13 r, 00.00m,0000565725Hz,0000000000c,0000000.000s, 046.0C,00002195
2019-07-21 10:25:13 r, 00.00m,0000565782Hz,0000000000c,0000000.000s, 047.3C,00002195
2019-07-21 10:35:13 r, 00.00m,0000565902Hz,0000000000c,0000000.000s, 048.0C,00002195
2019-07-21 10:45:13 r, 00.00m,0000565787Hz,0000000000c,0000000.000s, 048.9C,00002195
2019-07-21 10:55:13 r, 00.00m,0000565922Hz,0000000000c,0000000.000s, 049.9C,00002195
2019-07-21 11:05:13 r, 00.00m,0000565862Hz,0000000000c,0000000.000s, 049.9C,00002195
2019-07-21 11:15:13 r, 00.00m,0000565816Hz,0000000000c,0000000.000s, 049.6C,00002195
2019-07-21 11:25:13 r, 00.00m,0000565955Hz,0000000000c,0000000.000s, 050.2C,00002195
2019-07-21 11:35:13 r, 00.00m,0000565991Hz,0000000000c,0000000.000s, 050.9C,00002195
2019-07-21 11:45:13 r, 00.00m,0000565980Hz,0000000000c,0000000.000s, 050.9C,00002195
2019-07-21 11:55:13 r, 00.00m,0000565981Hz,0000000000c,0000000.000s, 051.2C,00002195
2019-07-21 12:05:13 r, 00.00m,0000565911Hz,0000000000c,0000000.000s, 051.2C,00002195
2019-07-21 12:15:13 r, 00.00m,0000565883Hz,0000000000c,0000000.000s, 050.9C,00002195
2019-07-21 12:25:13 r, 00.00m,0000565886Hz,0000000000c,0000000.000s, 050.9C,00002195
2019-07-21 12:35:13 r, 00.00m,0000565979Hz,0000000000c,0000000.000s, 051.5C,00002195
2019-07-21 12:45:13 r, 00.00m,0000566037Hz,0000000000c,0000000.000s, 052.5C,00002195
2019-07-21 12:55:13 r, 00.00m,0000566022Hz,0000000000c,0000000.000s, 053.1C,00002195
2019-07-21 13:05:13 r, 00.00m,0000566072Hz,0000000000c,0000000.000s, 053.1C,00002195
2019-07-21 13:15:13 r, 00.00m,0000566051Hz,0000000000c,0000000.000s, 053.8C,00002195
2019-07-21 13:25:13 r, 00.00m,0000566047Hz,0000000000c,0000000.000s, 052.8C,00002195
2019-07-21 13:35:13 r, 00.00m,0000566111Hz,0000000000c,0000000.000s, 054.1C,00002195
2019-07-21 13:45:13 r, 00.00m,0000565721Hz,0000000000c,0000000.000s, 050.2C,00002195
2019-07-21 13:55:13 r, 00.00m,0000565841Hz,0000000000c,0000000.000s, 050.9C,00002195
2019-07-21 14:05:13 r, 00.00m,0000565877Hz,0000000000c,0000000.000s, 052.2C,00002195
2019-07-21 14:15:13 r, 00.00m,0000565936Hz,0000000000c,0000000.000s, 053.1C,00002195
2019-07-21 14:25:13 r, 00.00m,0000566010Hz,0000000000c,0000000.000s, 052.5C,00002195
2019-07-21 14:35:13 r, 00.00m,0000565896Hz,0000000000c,0000000.000s, 052.5C,00002195
2019-07-21 14:45:13 r, 00.00m,0000565633Hz,0000000000c,0000000.000s, 049.6C,00002195
2019-07-21 14:55:13 r, 00.00m,0000565552Hz,0000000000c,0000000.000s, 048.0C,00002195
2019-07-21 15:05:13 r, 00.00m,0000565817Hz,0000000000c,0000000.000s, 050.9C,00002195
2019-07-21 15:15:13 r, 00.00m,0000565537Hz,0000000000c,0000000.000s, 048.6C,00002195
2019-07-21 15:25:13 r, 00.00m,0000565708Hz,0000000000c,0000000.000s, 049.6C,00002195
2019-07-21 15:35:13 r, 00.00m,0000565889Hz,0000000000c,0000000.000s, 052.8C,00002195
2019-07-21 15:45:13 r, 00.00m,0000565623Hz,0000000000c,0000000.000s, 050.2C,00002195
2019-07-21 15:55:13 r, 00.00m,0000565546Hz,0000000000c,0000000.000s, 048.6C,00002195
2019-07-21 16:05:13 r, 00.00m,0000565788Hz,0000000000c,0000000.000s, 050.9C,00002195
2019-07-21 16:15:13 r, 00.00m,0000565822Hz,0000000000c,0000000.000s, 051.5C,00002195
2019-07-21 16:25:13 r, 00.00m,0000565653Hz,0000000000c,0000000.000s, 049.3C,00002195
2019-07-21 16:35:13 r, 00.00m,0000565672Hz,0000000000c,0000000.000s, 049.3C,00002195
2019-07-21 16:45:13 r, 00.00m,0000565489Hz,0000000000c,0000000.000s, 047.3C,00002195
2019-07-21 16:55:13 r, 00.00m,0000565603Hz,0000000000c,0000000.000s, 048.6C,00002195
2019-07-21 17:05:13 r, 00.00m,0000565460Hz,0000000000c,0000000.000s, 048.0C,00002195
2019-07-21 17:15:13 r, 00.00m,0000565404Hz,0000000000c,0000000.000s, 046.4C,00002195
2019-07-21 17:25:13 r, 00.00m,0000565311Hz,0000000000c,0000000.000s, 046.0C,00002195
2019-07-21 17:35:13 r, 00.00m,0000565432Hz,0000000000c,0000000.000s, 046.7C,00002195
2019-07-21 17:45:13 r, 00.00m,0000565502Hz,0000000000c,0000000.000s, 048.3C,00002195
2019-07-21 17:55:13 r, 00.00m,0000565573Hz,0000000000c,0000000.000s, 048.6C,00002195
2019-07-21 18:05:13 r, 00.00m,0000565586Hz,0000000000c,0000000.000s, 048.3C,00002195
2019-07-21 18:15:13 r, 00.00m,0000565566Hz,0000000000c,0000000.000s, 048.9C,00002195
2019-07-21 18:25:13 r, 00.00m,0000565549Hz,0000000000c,0000000.000s, 048.6C,00002195
2019-07-21 18:35:13 r, 00.00m,0000565484Hz,0000000000c,0000000.000s, 048.0C,00002195
2019-07-21 18:45:13 r, 00.00m,0000565428Hz,0000000000c,0000000.000s, 047.3C,00002195
2019-07-21 18:55:13 r, 00.00m,0000565383Hz,0000000000c,0000000.000s, 046.4C,00002195
2019-07-21 19:05:13 r, 00.00m,0000565293Hz,0000000000c,0000000.000s, 045.7C,00002195
2019-07-21 19:15:13 r, 00.00m,0000565214Hz,0000000000c,0000000.000s, 044.8C,00002195
2019-07-21 19:25:13 r, 00.00m,0000565183Hz,0000000000c,0000000.000s, 044.1C,00002195
2019-07-21 19:35:13 r, 00.00m,0000565061Hz,0000000000c,0000000.000s, 043.5C,00002195
2019-07-21 19:45:13 r, 00.00m,0000564986Hz,0000000000c,0000000.000s, 042.5C,00002195
2019-07-21 19:55:13 r, 00.00m,0000564930Hz,0000000000c,0000000.000s, 041.5C,00002195
2019-07-21 20:05:13 r, 00.00m,0000564865Hz,0000000000c,0000000.000s, 040.6C,00002195
2019-07-21 20:15:13 r, 00.00m,0000564718Hz,0000000000c,0000000.000s, 039.3C,00002195
2019-07-21 20:25:13 r, 00.00m,0000546227Hz,0000000000c,0000000.000s, 038.6C,00002195
2019-07-21 20:35:13 r, 00.00m,0000455474Hz,0000000000c,0000000.000s, 038.0C,00002195
2019-07-21 20:45:13 r, 06.00m,0000354850Hz,0000000000c,0000000.000s, 037.3C,00002195
2019-07-21 20:55:13 r, 06.34m,0000258993Hz,0000000000c,0000000.000s, 036.7C,00002195
2019-07-21 21:05:13 r, 06.79m,0000171095Hz,0000000000c,0000000.000s, 036.4C,00002195
2019-07-21 21:15:13 r, 07.45m,0000093116Hz,0000000000c,0000000.000s, 036.0C,00002195
2019-07-21 21:25:13 r, 08.21m,0000046260Hz,0000000000c,0000000.000s, 035.7C,00002195
2019-07-21 21:35:13 r, 09.21m,0000018522Hz,0000000000c,0000000.000s, 035.4C,00002195
2019-07-21 21:45:13 r, 10.46m,0000005845Hz,0000000000c,0000000.000s, 035.1C,00002195
2019-07-21 21:55:13 r, 11.97m,0000001448Hz,0000000000c,0000000.000s, 034.8C,00002195
2019-07-21 22:05:13 r, 13.57m,0000000332Hz,0000000000c,0000000.000s, 034.8C,00002195
2019-07-21 22:15:13 r, 15.26m,0000000071Hz,0000006598c,0000000.014s, 034.4C,00002195
2019-07-21 22:25:13 r, 16.67m,0000000019Hz,0000024117c,0000000.052s, 034.4C,00002195
2019-07-21 22:35:13 r, 17.57m,0000000009Hz,0000055488c,0000000.120s, 034.1C,00002195
2019-07-21 22:45:13 r, 18.10m,0000000005Hz,0000090131c,0000000.196s, 033.8C,00002195
2019-07-21 22:55:13 r, 18.38m,0000000004Hz,0000117153c,0000000.254s, 033.8C,00002195
2019-07-21 23:05:13 r, 18.52m,0000000004Hz,0000132629c,0000000.288s, 033.5C,00002195
2019-07-21 23:15:13 r, 18.58m,0000000004Hz,0000140111c,0000000.304s, 033.1C,00002195
2019-07-21 23:25:13 r, 18.60m,0000000003Hz,0000143156c,0000000.311s, 033.1C,00002195
2019-07-21 23:35:13 r, 18.61m,0000000003Hz,0000144862c,0000000.314s, 032.8C,00002195
2019-07-21 23:45:13 r, 18.61m,0000000003Hz,0000144969c,0000000.315s, 032.5C,00002195
2019-07-21 23:55:13 r, 18.62m,0000000003Hz,0000145893c,0000000.317s, 032.5C,00002195
